Theta_e
306 307 308 309 310 311 311 311 311 311 310 310 310 309 308 308 307 306 306 306 305 305 305 305 305 305 304 304 303 303 303 304 304 305 305 305 306 308 310 312 314 315 316 317 318 319 320 320 320 320 321 321 321 320 319 317 316 316 315 315 316 317 317 318 320 321 323 324 325 325 326 327 328 328
308 309 310 310 311 311 311 312 312 312 312 311 311 310 310 310 309 308 307 306 306 305 305 305 305 305 305 304 303 303 303 303 303 304 304 304 305 305 305 306 307 308 309 310 312 314 315 316 317 317 318 319 319 319 318 317 316 316 315 315 315 315 315 316 316 317 319 320 322 322 323 324 325 325
309 309 310 310 310 310 310 311 311 312 312 312 312 312 312 311 311 310 309 308 307 306 306 305 305 305 305 305 303 303 302 302 303 303 303 304 304 304 305 305 305 306 306 306 307 308 309 310 311 312 313 314 315 315 316 316 316 316 316 316 316 315 316 316 316 315 315 316 318 319 320 321 321 322
309 309 309 309 309 309 310 310 310 311 312 312 312 312 312 312 312 312 312 310 309 308 307 306 306 306 305 304 304 304 303 302 302 302 302 303 304 304 304 304 305 305 306 306 306 307 307 307 308 308 309 309 310 311 311 312 313 313 314 314 314 314 315 316 316 316 315 314 314 314 315 316 317 317
308 308 308 308 308 308 308 309 309 310 311 311 312 312 312 312 312 312 312 312 311 310 309 309 308 306 305 304 304 303 303 303 302 301 301 301 302 303 304 305 305 306 306 306 307 308 308 308 308 308 308 308 309 309 309 309 309 310 310 310 310 310 312 314 315 315 314 313 313 313 312 312 312 312
307 307 307 308 307 307 307 307 308 308 309 310 311 311 312 312 312 312 312 312 311 311 311 311 309 308 307 305 304 303 303 302 302 301 300 300 300 300 301 303 304 305 306 307 307 307 308 308 308 308 308 309 308 309 309 309 310 310 310 310 309 309 310 312 312 312 312 313 313 314 314 312 311 310
308 308 308 309 309 308 307 307 307 308 308 309 309 310 311 311 311 311 311 311 311 311 311 310 310 309 308 306 304 303 302 301 301 301 300 300 300 299 299 300 301 302 304 305 306 306 307 307 308 308 308 308 308 307 308 308 309 310 310 311 311 311 310 311 311 311 312 312 312 314 314 313 312 311
313 312 312 312 312 311 310 309 308 308 308 309 309 309 309 310 310 311 311 311 311 311 311 310 310 309 307 306 305 304 302 302 301 301 300 300 300 299 299 299 299 299 300 301 302 302 303 304 305 306 306 307 307 306 306 305 306 308 310 310 311 311 311 311 311 311 311 312 313 314 314 313 312 311
316 316 316 315 315 315 315 313 311 310 310 310 309 308 309 309 310 310 310 311 311 311 311 310 309 308 307 306 305 305 304 303 302 302 301 301 301 301 300 299 299 300 299 299 299 299 299 300 300 301 302 303 303 303 303 302 303 305 307 309 310 310 311 311 312 312 312 313 313 313 313 312 312 311
317 317 317 316 316 316 317 316 315 314 313 311 311 310 310 309 309 310 310 311 310 311 310 310 309 309 309 308 306 305 305 304 304 303 303 303 303 302 302 301 300 300 299 299 299 299 299 298 298 298 299 300 300 300 300 301 301 302 305 307 309 310 310 311 312 313 313 313 314 314 314 314 314 313
316 316 316 316 316 316 316 316 316 316 314 313 313 312 312 311 310 310 310 311 310 310 310 310 310 309 309 308 306 304 304 303 303 304 305 305 305 304 303 302 302 300 300 299 299 299 298 298 298 298 298 298 299 299 299 300 301 302 303 306 308 309 309 310 311 312 312 312 313 314 315 315 315 315
315 315 315 316 316 316 316 316 316 315 315 314 313 313 313 312 311 311 311 311 310 310 310 310 309 309 309 308 306 305 305 304 304 304 304 304 304 304 304 303 302 301 300 300 300 299 299 299 299 298 298 298 299 299 299 299 300 301 302 304 306 308 309 310 311 312 312 311 312 313 314 315 316 316
315 316 316 316 316 316 316 315 315 315 314 313 313 313 313 312 311 311 311 311 311 310 310 310 309 309 308 308 307 307 307 306 306 304 303 302 303 303 303 303 302 301 301 301 301 300 299 299 299 299 298 298 298 298 298 299 299 299 300 301 303 305 307 308 310 310 311 312 313 313 314 315 316 316
315 316 316 316 316 316 316 315 314 313 313 312 312 311 311 311 311 311 310 310 310 310 310 309 309 309 308 308 307 307 306 306 305 304 303 303 302 302 302 303 302 301 301 301 302 301 300 299 299 299 298 298 298 298 298 299 299 299 299 299 300 301 303 305 307 308 309 311 312 313 314 315 316 317
315 316 317 317 317 317 317 316 315 313 312 311 310 310 309 309 309 310 309 309 309 309 309 309 308 308 307 307 306 306 305 305 304 304 303 302 301 300 300 301 301 300 299 300 301 301 299 298 298 298 298 298 298 298 298 299 299 299 299 299 299 299 299 300 302 304 306 307 309 311 312 314 315 316
312 312 314 316 317 318 317 317 317 314 311 310 309 308 308 308 309 309 309 309 309 308 308 308 308 307 307 306 305 305 304 303 303 302 302 301 300 299 298 298 298 298 298 297 298 299 299 297 298 298 298 298 298 298 298 298 298 299 299 299 299 299 299 299 299 300 301 303 304 307 309 311 312 313
306 307 308 310 314 317 318 318 317 315 311 309 309 308 308 308 309 309 308 308 307 307 307 307 307 306 305 304 304 303 303 302 302 301 301 300 299 298 297 297 296 296 296 296 296 297 297 297 297 297 297 297 297 297 298 298 298 298 298 298 298 298 299 299 299 299 299 300 300 302 304 306 308 309
304 306 308 310 313 315 317 317 316 314 311 309 308 307 308 308 308 307 307 307 306 305 306 307 306 305 304 303 303 302 302 301 301 300 300 300 299 297 296 296 295 295 295 295 295 296 296 296 296 296 297 297 297 297 297 297 297 297 298 298 298 298 299 299 299 299 299 299 299 300 301 302 304 305
303 304 306 309 312 314 315 315 314 312 309 308 307 307 307 308 308 307 307 306 305 305 305 306 305 305 304 303 302 301 301 301 300 300 299 298 297 296 295 295 295 295 295 295 295 295 296 296 295 296 296 297 297 297 297 296 296 296 297 297 297 298 299 300 300 300 300 300 300 300 301 301 302 302
302 302 303 305 309 312 314 313 311 308 307 307 307 307 307 308 308 307 306 304 304 304 304 304 304 304 304 302 301 300 300 300 300 299 298 296 295 294 294 295 295 295 295 295 295 295 295 295 295 295 295 296 296 296 296 296 296 296 297 298 298 298 299 299 300 300 300 301 301 301 301 302 303 303
302 302 302 303 306 310 312 312 309 308 307 307 306 307 307 307 307 305 304 303 303 304 304 304 304 303 302 301 300 300 300 299 298 297 296 295 294 294 294 294 294 295 295 295 295 294 294 294 294 294 294 295 295 295 295 295 295 296 298 300 300 299 299 298 298 299 299 300 300 301 302 302 302 303
302 302 302 303 305 308 310 310 309 308 307 307 306 307 306 306 304 303 303 303 303 303 303 303 302 301 300 300 299 299 298 297 296 295 294 294 294 294 294 294 294 294 294 295 294 293 293 293 293 293 293 294 294 295 295 295 295 296 298 300 300 299 298 298 297 298 298 298 299 300 300 301 301 302
304 303 304 304 306 307 308 308 308 308 307 306 306 305 305 303 303 303 303 303 302 302 302 301 301 300 299 298 298 297 296 295 295 294 294 294 294 293 293 293 293 293 293 294 293 292 292 292 292 292 292 293 293 294 294 294 294 294 295 298 299 299 298 298 297 297 297 298 298 298 299 299 300 301
305 304 305 305 306 306 306 307 306 306 305 305 305 304 303 303 303 302 302 301 301 301 300 300 299 298 297 296 296 296 295 295 294 294 294 293 293 293 292 292 292 291 292 292 292 291 291 291 291 291 291 291 292 293 292 292 293 293 293 295 296 296 296 296 296 296 296 297 297 297 298 298 298 299
305 305 305 305 306 306 305 305 305 305 305 305 304 303 303 302 302 301 302 302 301 300 299 298 297 297 296 296 295 295 294 294 294 293 294 293 293 292 291 291 291 291 292 292 291 291 291 291 290 291 291 291 291 291 291 292 292 292 292 293 293 294 294 294 294 294 295 295 296 297 297 297 297 298
305 305 304 304 304 305 305 305 304 304 304 303 303 303 302 302 302 301 301 301 299 298 297 297 296 296 295 295 294 294 294 294 294 293 293 293 292 292 291 291 291 291 292 292 291 290 290 290 290 290 290 291 291 291 291 291 291 291 292 292 292 293 293 293 293 293 294 296 297 298 297 297 296 296
305 305 304 304 304 304 304 304 303 303 303 303 302 302 302 301 300 299 298 298 297 296 296 295 295 294 294 294 293 294 293 293 293 293 293 293 293 292 292 292 291 291 291 291 291 290 290 290 290 290 290 290 290 291 291 291 291 291 291 292 292 293 293 293 293 293 294 295 296 296 296 296 296 296
305 304 304 303 303 303 303 302 302 302 302 301 301 300 299 298 297 296 296 296 295 295 294 294 294 294 293 293 293 293 293 293 293 293 293 293 292 292 292 292 291 291 291 291 291 291 290 290 290 290 290 290 290 291 291 291 291 291 291 291 292 292 293 293 294 294 294 295 295 295 296 296 296 296
304 303 303 302 301 301 300 300 299 298 297 297 296 296 296 296 295 295 295 294 294 293 293 293 293 293 294 293 293 293 293 293 293 293 292 292 292 291 291 291 291 291 291 291 291 291 291 290 290 290 290 290 290 290 290 291 291 291 291 291 292 292 293 293 294 294 295 295 295 295 295 295 295 296
303 301 300 299 298 297 296 296 295 295 295 295 295 295 295 295 295 294 293 293 293 293 293 294 294 294 294 294 293 293 292 292 292 291 291 291 291 291 290 290 290 291 291 291 291 291 291 291 290 290 290 290 290 290 290 290 290 291 291 291 292 293 293 293 294 294 295 295 295 295 295 295 296 296
300 299 297 296 295 294 295 295 295 295 295 295 295 295 294 294 293 293 293 293 293 294 294 294 294 294 293 293 292 292 291 291 291 291 291 291 290 290 290 290 290 291 291 291 291 291 291 291 290 290 290 289 289 289 289 290 290 291 291 291 292 293 293 293 294 294 295 295 295 295 296 296 296 297
298 296 295 295 295 295 295 295 295 295 295 295 294 294 293 293 293 293 294 294 294 293 293 293 293 293 292 292 291 291 291 291 291 291 291 290 290 290 290 290 290 290 290 291 291 291 290 290 290 290 289 289 289 289 289 290 290 290 290 291 292 292 293 293 294 294 295 295 295 295 295 295 296 296
296 295 295 295 295 295 295 295 295 295 294 294 293 293 293 294 294 294 294 294 293 293 293 293 293 292 292 291 291 291 291 291 291 291 291 291 290 290 290 290 290 290 290 290 291 291 291 290 290 290 289 289 289 289 289 289 290 290 290 291 291 292 293 293 294 294 294 295 295 295 295 295 295 296
295 295 295 295 295 295 295 295 294 294 293 293 293 294 294 294 294 293 293 293 293 293 293 292 292 291 291 291 290 290 291 291 291 291 291 290 290 290 290 290 290 290 290 290 290 291 291 291 290 290 290 290 290 290 289 289 290 290 290 291 291 292 293 293 293 293 294 294 295 295 295 295 295 295
295 295 295 295 295 295 295 294 294 293 293 293 294 294 294 293 293 293 293 293 293 293 292 292 291 291 290 290 290 290 290 290 291 291 291 291 291 290 290 290 290 290 290 290 290 291 290 290 290 289 289 289 289 290 290 290 290 290 291 291 291 292 292 293 293 293 293 294 294 294 294 295 295 295
294 295 295 295 295 295 294 293 293 293 293 294 294 294 293 293 292 292 292 292 292 292 291 291 291 290 290 290 290 290 290 290 290 291 291 291 291 291 290 290 290 290 290 290 291 291 290 290 290 289 289 289 289 289 290 290 290 290 291 291 292 292 292 293 293 293 294 294 294 295 295 295 296 296
294 295 295 295 295 294 293 293 293 294 294 294 293 293 292 292 291 291 292 292 292 291 291 290 290 290 290 290 290 290 290 290 291 291 291 291 291 291 291 291 291 291 291 291 291 291 291 290 290 289 289 289 289 289 290 290 290 290 291 291 292 292 293 293 294 294 294 295 295 295 295 296 296 296
295 295 295 294 293 293 292 293 294 294 294 293 293 292 291 291 290 291 292 292 291 291 290 290 290 290 290 290 290 290 291 291 291 291 291 291 291 291 291 291 291 291 291 291 292 292 292 291 291 290 290 289 289 289 290 290 290 290 291 291 292 293 293 294 294 294 295 295 295 295 296 296 296 296
296 295 294 293 292 292 293 294 294 294 293 293 292 292 291 290 290 291 291 292 291 291 290 290 290 290 290 291 291 291 291 291 291 291 291 291 291 291 291 291 291 292 292 292 292 293 293 293 292 291 290 290 289 290 290 290 290 290 291 291 291 292 293 293 294 294 295 295 295 295 296 296 296 296
296 294 293 292 292 293 293 294 294 294 293 292 292 291 290 290 290 291 291 292 291 291 290 290 290 290 291 291 291 291 291 290 291 291 291 291 291 291 291 291 292 292 292 293 293 294 294 294 292 291 290 290 290 290 290 290 290 291 291 291 291 292 292 293 293 294 294 295 295 295 296 296 296 296
294 293 292 292 293 293 294 294 294 293 292 292 291 290 290 289 290 291 291 291 291 291 291 290 290 290 290 290 291 290 290 290 290 291 291 291 291 292 292 292 292 292 292 293 294 294 294 294 292 291 291 290 290 290 290 290 290 291 291 291 292 292 292 293 293 293 294 295 295 295 295 296 296 296
293 292 292 293 293 293 293 293 293 292 292 291 291 290 290 289 290 291 291 291 291 291 290 290 290 290 290 290 290 290 290 290 290 291 291 291 291 292 292 292 292 292 293 293 294 294 294 294 293 292 291 291 290 290 290 290 290 291 291 292 292 292 293 293 294 294 295 295 295 295 295 295 295 295
292 292 292 293 293 293 293 293 292 292 291 291 291 290 289 289 290 291 291 291 291 290 290 290 290 290 290 290 290 290 290 290 290 291 291 291 291 292 292 292 292 293 293 293 294 295 295 294 293 293 292 292 291 291 291 291 291 291 291 292 292 292 293 294 294 295 295 295 295 295 295 294 294 295
291 292 293 293 292 293 293 292 291 291 291 291 291 290 289 289 290 291 291 291 291 290 290 290 290 290 290 290 290 290 290 290 290 290 291 291 292 292 292 292 293 293 293 293 294 295 295 294 294 293 293 292 292 291 291 291 291 292 292 292 293 293 294 294 295 295 296 295 295 295 294 294 294 294
292 293 293 292 292 292 292 291 291 291 291 291 291 290 289 289 289 290 291 291 290 290 290 290 290 290 290 290 290 290 290 290 290 290 291 291 292 292 292 293 293 293 294 294 294 295 295 295 294 293 293 293 293 292 292 292 292 292 293 293 293 293 294 294 295 295 295 295 294 294 294 294 293 294
Wind_Speed
13 13 13 13 13 14 14 14 14 14 14 14 14 14 14 13 13 13 12 12 12 11 11 11 11 11 11 12 12 12 12 11 11 10 10 9 9 9 9 10 10 11 11 11 11 11 10 10 9 8 9 10 11 12 12 12 13 14 14 15 15 14 14 14 14 14 15 15 16 19 20 21 23 25
12 12 12 11 11 12 12 12 12 12 12 12 13 13 14 14 14 14 13 12 12 12 12 13 13 12 12 12 12 12 11 10 10 10 10 9 9 8 8 8 8 9 10 10 11 11 11 12 11 11 11 12 13 14 14 15 15 15 15 15 15 15 14 14 14 15 15 15 15 16 18 18 19 20
9 9 9 8 8 8 9 9 9 9 9 9 10 11 12 13 13 13 13 13 12 12 13 14 14 14 13 13 12 11 11 10 9 9 9 9 8 8 8 7 7 7 7 8 8 9 9 10 10 11 11 12 13 15 16 17 17 16 16 16 15 15 15 15 14 14 15 15 15 16 17 18 18 19
6 6 5 5 5 5 5 6 6 7 7 6 7 8 9 10 11 11 13 13 13 13 14 14 15 15 15 14 13 12 11 11 10 9 9 9 8 8 8 8 8 7 7 7 6 6 7 7 8 9 10 11 12 14 16 17 18 18 18 18 18 17 17 16 15 15 15 15 15 15 16 17 17 18
4 3 3 3 2 2 2 2 3 4 4 4 4 5 6 7 8 10 11 12 12 13 14 15 16 16 15 15 14 14 13 12 12 12 11 9 8 8 8 7 8 8 7 7 7 6 6 6 7 8 9 10 11 12 13 15 16 17 17 18 18 18 18 18 17 16 16 15 15 15 16 17 17 17
2 2 2 2 1 1 1 1 1 2 2 3 3 4 4 6 7 8 10 11 11 11 12 14 16 16 16 16 16 16 15 15 14 14 13 11 10 9 8 8 8 8 8 8 8 8 8 8 8 9 9 10 11 11 12 13 14 15 15 16 16 16 17 18 18 17 16 16 16 16 17 18 18 17
2 2 2 2 2 2 2 2 2 2 3 3 4 4 4 5 6 7 9 10 10 11 12 13 14 16 16 17 17 17 17 16 15 14 13 13 13 12 11 10 8 8 9 10 11 11 12 12 12 12 13 13 13 14 14 14 14 15 15 16 16 16 16 17 17 17 17 17 18 18 18 18 19 18
2 3 4 4 4 4 4 4 3 3 4 4 5 5 5 6 6 7 9 10 11 12 13 13 14 15 16 17 17 17 17 16 16 16 15 14 13 13 13 12 11 10 9 10 11 12 14 15 16 17 17 17 18 18 18 18 17 16 16 17 17 17 17 16 16 16 17 17 18 18 18 18 17 17
3 4 5 5 6 6 5 5 5 4 5 6 6 6 7 7 7 8 9 10 11 12 12 13 14 15 16 17 18 18 17 18 18 17 16 15 14 13 13 14 14 14 14 13 13 13 14 15 16 18 19 20 21 22 22 22 21 20 18 17 17 18 18 17 16 15 15 17 18 17 16 15 15 15
5 5 6 7 8 7 7 6 6 6 6 6 7 7 7 8 8 8 9 11 12 13 13 13 14 15 16 17 18 18 19 19 20 20 19 17 16 16 16 17 17 18 18 18 17 16 16 16 17 17 19 20 21 23 24 24 24 23 21 19 18 18 18 18 18 17 17 17 18 17 16 16 16 16
9 9 9 10 11 10 9 9 8 8 8 8 8 8 8 8 8 8 9 11 13 13 14 14 15 16 17 18 18 19 19 19 20 21 21 20 20 20 21 22 22 21 20 19 19 19 19 19 19 19 19 20 20 21 23 24 24 24 23 22 20 19 18 18 18 18 19 20 20 20 20 20 18 17
12 12 12 13 13 13 13 12 12 12 11 10 9 9 9 9 9 9 10 11 12 14 15 16 16 17 18 18 18 18 19 20 20 21 22 22 23 23 23 24 25 25 24 23 22 21 22 21 20 21 21 21 21 21 21 23 24 24 24 24 23 22 20 19 18 17 18 19 21 22 22 23 22 21
13 14 14 14 15 15 16 16 16 16 15 13 11 11 11 11 10 11 11 11 12 14 15 16 17 18 18 19 18 18 19 20 21 22 23 23 24 24 24 24 25 27 27 27 26 26 26 25 24 23 23 23 23 22 22 22 23 24 25 25 25 25 24 22 20 19 18 18 19 20 21 23 24 23
15 15 15 15 15 15 17 18 20 20 19 17 14 14 14 13 13 13 13 13 13 14 16 18 19 19 19 20 21 20 20 21 21 23 24 26 27 27 26 25 25 26 29 30 28 27 28 29 27 26 25 25 24 24 23 23 23 24 25 25 25 26 26 25 24 22 21 20 19 19 19 20 22 22
15 15 15 15 15 16 16 18 20 22 22 20 17 16 16 15 14 15 15 15 15 15 16 19 21 22 22 23 23 23 23 23 24 25 27 29 30 31 31 31 28 28 31 32 30 28 28 30 29 28 28 28 27 26 24 23 23 24 24 24 25 25 25 25 26 26 25 23 22 20 19 19 19 20
16 16 16 16 16 16 16 17 19 22 23 21 19 18 17 16 16 16 17 17 17 16 17 20 23 24 24 24 24 24 25 26 26 28 30 31 32 33 34 35 34 33 34 35 34 30 28 30 31 30 29 29 28 27 26 24 23 23 23 23 23 23 23 23 23 25 26 26 25 24 23 21 20 19
14 14 15 16 16 15 15 16 16 19 22 22 21 19 18 17 17 17 17 18 17 16 17 21 23 24 25 25 25 26 27 27 28 30 31 33 34 35 36 36 36 36 36 36 36 33 30 31 33 31 29 29 28 27 25 23 22 21 21 21 21 21 21 21 20 21 23 24 25 25 25 24 23 22
10 10 11 12 13 13 14 13 12 14 19 22 21 20 19 18 18 17 18 19 18 18 19 22 24 26 26 27 27 27 28 29 30 31 33 34 35 37 37 37 37 36 36 35 37 36 33 32 33 32 29 28 27 26 24 22 21 20 20 19 19 19 18 18 18 18 19 20 21 22 24 24 25 25
9 9 9 9 9 9 10 8 8 11 17 20 20 20 20 19 18 18 19 19 18 19 20 22 25 27 28 28 28 28 28 30 31 33 34 35 36 37 37 37 36 36 35 34 35 36 34 32 32 31 29 27 27 26 25 22 20 19 18 18 17 17 15 14 15 15 15 16 17 18 20 21 23 24
10 10 9 8 6 6 6 5 6 11 16 18 19 19 19 19 19 19 19 18 19 20 20 22 25 28 28 28 28 28 29 31 32 34 35 35 35 37 38 38 37 36 35 34 32 33 33 30 30 31 29 28 28 27 24 21 18 15 13 13 14 14 13 12 12 12 12 11 12 13 14 16 17 18
10 10 9 8 6 5 5 5 8 13 16 17 18 18 18 19 19 19 18 19 20 21 22 24 27 28 27 27 27 28 30 31 33 34 35 34 35 36 37 39 38 37 36 32 29 30 30 29 29 31 31 29 28 26 23 19 14 11 9 9 10 11 12 12 12 12 12 11 10 11 12 13 14 14
10 10 9 8 7 6 5 6 9 13 15 16 17 17 18 18 18 18 19 20 22 22 23 25 27 27 27 27 28 29 30 31 32 33 34 34 34 35 35 37 37 37 35 30 27 28 29 28 28 30 31 31 29 25 21 16 13 11 11 12 14 14 15 15 15 15 15 14 13 13 14 14 15 14
12 10 9 8 7 7 7 7 9 12 14 15 16 16 17 17 18 19 20 21 22 22 23 25 26 26 27 28 29 30 31 31 31 32 32 32 33 33 33 33 34 35 34 29 27 28 30 29 28 28 29 30 30 26 22 20 18 16 15 17 19 20 19 19 20 20 19 17 16 16 17 17 17 17
11 10 9 8 8 8 8 9 11 12 13 14 15 16 16 18 19 20 20 21 22 24 25 26 27 28 29 30 31 31 31 31 31 32 32 32 31 31 31 31 30 32 33 29 26 28 30 29 29 27 26 27 29 29 29 27 24 20 18 18 20 21 22 23 23 23 23 22 20 19 20 21 21 20
10 9 9 9 9 10 10 11 12 13 14 15 16 17 17 18 19 20 22 24 26 27 28 29 30 30 31 31 32 32 32 33 33 33 33 32 31 29 29 30 30 32 33 29 25 27 30 30 29 29 27 27 29 30 31 30 28 24 20 18 18 18 18 19 20 20 19 19 19 19 20 22 23 23
10 10 10 10 10 10 10 11 12 13 15 16 18 18 19 20 21 23 25 27 28 29 30 30 30 31 31 32 33 34 34 35 34 34 33 32 30 29 29 29 30 33 34 30 26 27 29 30 30 29 29 29 28 29 29 28 27 25 22 19 18 17 16 16 17 16 15 15 16 16 18 20 22 23
10 10 10 10 10 10 10 11 12 13 15 17 18 19 21 22 24 25 26 27 28 29 29 30 30 31 32 34 34 35 35 34 34 34 34 33 32 31 30 29 30 32 32 30 27 27 29 30 30 29 30 31 30 29 28 26 25 26 25 23 20 17 15 15 15 15 14 14 15 16 17 18 18 18
11 11 11 11 11 11 12 13 14 15 16 18 19 20 21 23 24 24 25 26 27 28 29 30 31 32 32 33 34 34 34 35 35 34 34 33 31 30 30 29 29 30 30 29 28 27 28 30 30 29 30 31 29 29 28 27 25 25 26 25 23 19 16 15 17 16 15 15 15 16 17 17 15 15
11 11 11 11 11 12 13 14 15 16 17 17 18 19 20 21 22 23 24 25 27 28 29 30 31 31 31 32 33 33 34 33 32 31 30 29 28 27 28 28 28 28 28 28 28 27 28 29 30 30 30 28 27 28 29 28 26 24 25 26 25 21 17 16 18 18 16 16 16 17 18 18 17 17
10 11 11 11 11 12 13 13 14 15 15 16 17 18 19 21 22 23 24 25 26 27 28 29 30 30 31 31 31 30 30 29 27 27 27 27 27 26 26 28 28 27 26 25 26 26 27 28 28 28 28 26 26 27 28 29 28 25 24 25 25 23 19 17 17 18 18 18 18 18 19 19 19 19
10 10 10 11 11 11 12 12 13 13 14 16 17 19 20 21 22 23 23 24 25 26 27 28 29 29 29 29 28 27 26 26 25 25 25 27 27 26 26 28 29 27 25 23 22 22 23 24 24 25 26 26 26 27 27 28 28 27 25 26 26 26 24 21 19 21 21 20 20 20 20 20 19 19
10 10 10 10 10 11 11 12 13 14 15 17 18 19 20 20 21 21 22 23 23 25 26 27 27 27 27 26 25 25 26 26 25 25 25 26 27 27 27 28 29 28 27 24 21 18 18 19 20 21 22 23 24 25 25 27 27 27 27 27 26 27 27 25 23 22 21 21 22 22 22 22 20 19
10 9 9 10 10 11 11 12 13 14 16 17 17 18 18 18 18 19 20 22 23 24 25 26 26 26 26 25 25 26 27 27 26 25 25 26 27 27 27 28 28 28 28 26 23 19 16 16 17 19 20 21 21 22 23 26 26 26 26 26 25 26 27 26 25 23 21 21 22 22 22 22 22 22
9 9 10 10 11 11 12 13 14 15 15 15 15 15 15 16 17 18 20 22 23 24 25 25 25 25 26 26 26 26 27 27 26 25 25 26 26 27 27 27 28 27 27 27 25 21 19 19 18 19 19 19 19 19 20 23 25 25 25 25 25 26 27 27 27 25 23 22 22 22 24 25 24 24
9 9 10 10 11 11 12 13 14 14 14 13 13 13 14 15 17 19 21 23 24 24 25 25 25 25 25 25 25 25 26 27 26 25 25 25 25 26 25 26 27 26 26 26 25 22 21 20 19 19 20 19 19 20 19 18 19 21 22 22 21 22 23 23 22 21 21 21 22 23 25 26 24 21
9 9 9 10 11 12 13 14 13 13 12 11 11 12 14 16 18 20 22 23 24 24 24 24 24 24 23 23 24 25 26 26 26 25 25 25 25 25 25 25 26 25 25 25 24 22 20 20 18 18 19 20 20 21 20 17 15 16 17 18 17 16 16 15 14 14 16 18 19 20 22 23 20 15
8 9 10 11 12 13 13 12 11 10 9 9 11 13 15 17 19 21 22 23 23 23 22 22 23 22 22 23 24 25 25 25 24 24 24 24 24 24 24 25 25 25 25 24 23 20 19 19 18 17 18 19 20 21 21 19 16 14 14 15 15 12 11 12 13 14 14 15 16 17 18 17 14 11
9 10 11 11 12 12 11 10 9 8 8 9 12 14 16 18 19 21 23 23 23 22 22 22 22 22 22 23 24 24 24 23 23 24 24 24 23 23 24 24 25 25 25 24 23 20 19 19 19 18 18 19 20 21 21 20 18 15 14 14 15 13 11 11 13 13 12 12 12 12 12 12 11 9
10 11 11 11 11 10 9 7 7 6 8 10 12 14 16 18 21 23 24 23 23 22 21 21 21 21 22 22 22 23 23 22 23 23 23 23 23 23 23 24 24 25 25 24 23 20 19 19 19 18 17 18 18 18 18 18 19 18 16 15 16 16 14 13 13 12 11 10 10 9 8 8 8 8
10 10 10 9 8 7 6 5 6 7 9 11 13 15 17 19 22 23 24 23 23 22 21 20 20 21 22 22 22 21 21 21 22 22 22 22 22 22 22 23 23 23 23 23 22 21 20 20 18 17 16 15 14 13 13 15 18 18 15 12 12 13 14 15 14 13 12 11 10 8 7 8 7 7
9 9 8 7 6 5 4 5 6 7 9 11 13 15 17 20 22 23 23 23 23 23 22 22 21 22 22 22 21 21 21 21 21 22 21 21 21 21 21 21 22 22 22 23 22 21 20 19 17 14 14 13 12 12 13 15 17 16 13 9 8 10 12 14 14 13 13 11 9 8 8 8 7 7
8 7 6 5 4 3 3 4 6 8 10 12 14 16 18 19 21 22 22 22 23 24 24 23 22 22 22 22 21 21 21 21 21 21 21 20 21 21 21 21 21 22 22 22 22 21 20 17 15 13 12 11 11 12 14 16 16 14 12 9 8 9 11 11 11 11 11 10 9 9 8 7 7 7
7 6 5 4 2 2 3 5 7 9 11 13 15 16 18 20 21 22 23 24 25 25 24 24 23 23 23 23 22 21 20 21 21 21 20 20 20 20 21 21 21 21 21 21 21 19 18 16 13 12 11 11 11 13 14 15 14 13 12 10 9 8 8 8 8 9 9 10 10 9 6 4 4 4
6 5 4 3 2 2 4 6 8 10 12 14 15 16 18 19 21 22 23 24 25 24 24 25 24 24 24 23 22 20 20 20 21 21 20 20 19 19 20 20 21 21 20 19 19 17 15 14 12 11 11 10 10 11 12 12 12 11 10 8 7 7 6 5 5 6 8 9 9 6 5 5 4 1
5 5 4 3 3 3 5 7 9 11 13 14 15 16 17 19 21 22 23 24 24 24 24 25 25 26 25 24 22 21 20 20 21 21 20 19 19 19 19 19 20 20 19 18 17 16 14 12 11 9 8 7 7 8 10 10 10 9 7 6 5 5 5 4 3 4 6 8 8 6 5 6 5 2
Wind_Direction
102 98 94 89 86 83 79 77 74 72 70 67 70 75 79 84 90 90 78 64 53 40 32 30 23 16 15 13 9 2 357 357 357 353 348 341 330 319 310 303 300 297 296 296 294 290 286 283 280 276 274 275 278 280 280 282 286 288 287 283 277 275 272 268 266 263 261 259 254 252 251 252 261 267
108 103 98 94 87 81 77 74 73 72 69 68 70 72 72 72 76 77 70 58 49 35 26 25 20 13 11 11 8 3 359 358 356 355 355 352 348 340 328 317 310 305 301 299 296 292 287 282 279 276 272 271 273 275 277 278 282 285 286 285 281 277 274 270 266 263 261 259 256 255 254 252 257 265
113 110 106 101 90 81 74 70 69 69 67 66 65 65 65 63 63 64 60 50 40 30 22 19 15 10 8 6 4 1 1 0 359 357 355 354 350 339 333 331 326 320 315 310 304 299 293 286 282 280 279 278 278 278 279 279 279 279 279 278 278 278 277 274 271 267 263 260 258 256 257 257 258 262
116 117 115 107 93 83 73 65 62 60 58 56 52 53 54 53 51 49 48 42 32 21 14 10 7 5 2 359 358 360 1 360 359 0 359 356 344 332 329 329 328 327 325 322 316 308 300 293 288 285 284 284 284 284 284 285 284 282 279 277 274 272 273 274 273 270 266 261 260 260 259 260 262 263
115 113 107 100 90 86 75 59 52 46 44 36 26 29 33 36 38 35 35 35 28 17 7 1 358 356 355 354 355 357 357 357 358 360 359 355 347 338 330 323 320 318 317 316 314 310 306 299 294 291 289 288 289 290 290 291 291 289 287 286 281 275 269 268 269 269 267 262 262 265 266 266 265 264
85 85 67 51 37 30 304 322 352 359 10 6 349 348 357 7 17 19 18 19 20 13 4 357 351 348 347 348 351 353 354 355 356 353 351 351 352 349 340 328 319 311 305 303 302 300 299 297 294 292 292 291 291 292 291 291 291 290 289 288 286 281 273 268 267 266 264 263 263 264 266 268 269 266
14 12 14 12 0 348 327 318 323 333 340 335 320 315 321 338 353 2 1 1 3 2 357 352 347 344 343 344 346 349 350 351 349 348 348 349 350 349 345 337 328 316 304 297 294 293 291 290 290 288 288 289 290 291 291 289 287 286 285 284 282 280 277 272 269 267 264 263 262 261 262 265 267 267
0 355 350 348 343 340 339 332 326 329 330 323 315 310 313 323 333 343 347 349 352 351 348 345 344 343 342 341 340 341 341 342 343 344 345 344 344 345 344 339 333 326 317 306 299 294 290 287 285 284 284 285 286 288 289 289 286 282 280 281 280 278 277 275 272 269 267 264 261 261 263 265 267 269
326 336 334 327 323 327 335 335 325 317 316 318 318 316 318 321 323 330 337 342 346 346 345 343 342 341 340 337 335 335 334 334 335 336 337 336 334 335 338 338 335 331 327 323 316 309 302 296 290 286 284 284 284 286 288 288 286 282 277 276 276 276 276 273 269 266 265 264 263 262 264 268 273 277
288 294 300 301 302 306 314 320 316 309 304 307 313 316 317 317 319 325 331 337 341 342 343 342 339 337 336 334 332 331 331 329 328 327 326 325 325 327 330 332 333 333 330 327 324 321 317 312 307 301 294 290 287 287 287 286 285 282 277 273 273 274 274 272 267 261 259 260 261 262 264 269 275 281
273 277 277 278 283 287 293 298 299 297 293 291 297 305 312 314 316 321 326 333 339 341 342 340 337 335 334 332 330 329 327 325 322 321 319 319 321 324 327 329 329 330 328 324 322 321 319 317 314 310 305 299 295 291 287 284 283 282 279 275 272 271 272 272 269 262 258 257 257 258 262 265 269 275
271 274 273 269 269 272 278 283 286 285 282 278 280 287 295 300 304 307 313 323 331 336 339 340 339 337 333 329 326 324 323 322 321 322 322 321 321 321 324 326 326 325 324 321 320 319 317 315 313 311 308 303 300 296 291 286 283 281 279 275 272 271 270 270 271 268 262 258 255 255 257 260 263 267
273 275 274 270 267 267 270 273 276 278 277 273 272 275 281 283 285 289 293 304 318 327 333 337 337 335 331 326 321 320 321 322 323 324 324 323 322 319 319 320 322 323 321 318 317 319 319 317 314 312 309 306 303 300 296 292 289 285 281 277 273 270 267 266 267 269 268 264 260 257 256 256 257 259
281 280 277 274 270 266 264 266 270 271 272 273 270 266 270 274 277 280 283 290 304 317 327 334 335 333 330 325 320 319 319 321 324 324 325 325 325 323 319 317 319 322 320 316 313 316 320 319 315 313 311 308 305 303 300 297 293 289 286 283 278 274 270 266 264 265 267 268 266 263 261 258 256 255
286 284 282 279 274 268 263 261 263 265 265 268 266 261 263 267 272 278 280 283 296 310 323 332 332 328 327 324 320 318 319 321 324 325 327 328 327 327 325 323 323 324 322 319 315 315 319 318 313 312 313 310 307 307 305 300 296 293 291 288 286 282 277 272 267 264 264 265 266 265 264 262 259 256
288 286 284 282 278 274 267 260 259 259 259 259 258 256 257 263 271 277 279 282 293 306 320 328 326 323 321 319 317 317 318 320 323 325 327 327 326 326 326 325 325 325 323 321 318 316 318 316 312 310 312 311 310 309 307 304 300 296 294 292 290 288 285 280 274 269 265 263 264 264 263 263 262 259
290 286 284 281 278 275 269 262 257 254 250 249 249 248 253 264 273 276 278 283 293 305 316 322 321 317 316 315 314 315 316 318 320 322 323 323 323 323 322 322 324 324 323 322 318 317 318 316 312 311 310 310 311 310 309 308 304 300 297 294 293 292 289 286 281 275 270 266 263 262 262 261 261 261
303 294 287 281 277 272 266 261 256 249 244 243 244 245 254 266 270 272 279 287 295 305 313 317 317 315 314 312 311 312 313 315 317 317 318 319 319 318 319 319 321 321 321 320 317 315 316 315 312 311 311 309 309 309 308 308 306 303 299 297 296 296 295 292 286 278 272 269 266 263 261 261 260 260
321 314 303 292 284 277 272 270 262 250 242 239 242 249 257 264 267 274 284 289 294 302 307 312 313 312 310 307 305 306 308 310 311 312 313 315 315 314 314 315 316 317 317 317 315 313 314 314 312 311 311 309 308 308 307 308 307 302 300 300 300 298 296 295 292 286 278 272 270 268 266 265 263 262
323 324 323 318 311 306 303 293 258 241 237 240 247 255 260 265 272 280 284 286 292 297 300 306 309 306 302 299 299 301 303 305 307 308 309 311 311 311 311 312 313 313 313 314 313 312 312 314 312 310 311 310 308 307 308 310 308 303 304 308 305 297 291 288 290 291 289 284 280 278 276 273 270 268
323 328 331 332 337 340 327 289 251 241 242 248 253 258 264 272 278 281 280 284 291 294 297 302 302 297 293 293 296 299 301 303 304 305 307 309 309 309 310 311 311 311 311 312 313 311 310 312 312 310 311 310 307 307 309 308 300 291 285 279 274 274 274 276 280 281 280 280 277 275 276 274 272 270
334 335 335 335 340 341 323 284 259 253 253 255 258 263 271 275 276 276 280 286 290 292 295 297 294 291 291 293 295 297 298 300 302 303 305 307 307 308 309 309 309 309 308 311 313 310 308 310 311 311 311 309 307 308 308 302 290 277 258 244 248 257 262 267 273 275 275 275 273 272 273 276 276 274
337 335 331 328 326 319 306 284 268 260 257 259 263 268 271 273 274 278 283 287 290 291 293 292 289 289 291 292 294 296 297 299 300 301 303 305 306 307 307 307 307 305 305 310 313 309 306 308 309 311 312 311 309 308 305 299 293 283 265 250 250 257 263 266 268 270 272 273 272 272 273 273 274 274
332 325 316 309 302 293 285 277 271 267 266 268 270 271 272 274 278 282 286 288 290 290 290 289 290 291 292 293 295 297 298 299 300 301 302 303 304 304 303 303 302 299 299 306 309 304 302 304 305 305 307 305 301 301 301 300 298 294 286 273 263 261 264 266 268 270 271 270 271 274 276 275 273 271
318 307 297 289 284 280 277 276 277 277 276 277 278 280 281 282 283 285 288 289 289 289 289 290 292 294 295 297 298 298 299 300 301 301 301 301 302 301 300 300 298 295 298 303 303 297 296 298 299 300 299 296 294 296 299 299 298 297 296 294 287 280 276 275 276 276 272 268 266 269 276 281 279 275
305 296 288 283 281 280 280 281 282 282 281 281 282 284 286 286 286 287 287 287 288 290 292 293 295 297 298 299 299 300 300 301 300 300 301 302 302 300 298 296 294 294 297 300 296 291 289 291 293 295 295 293 293 294 295 296 297 299 298 297 296 295 292 289 287 282 270 261 260 265 276 286 288 285
300 294 291 288 286 283 281 280 279 280 282 282 281 282 284 284 286 287 288 290 292 294 296 298 299 301 301 301 302 302 302 302 303 304 305 305 304 302 299 295 292 290 292 293 289 285 283 285 288 290 290 291 291 292 292 292 295 298 298 296 294 293 290 289 288 283 271 263 265 270 275 281 285 287
297 295 294 292 288 283 279 276 275 277 279 281 281 283 285 287 289 291 293 296 297 298 300 301 302 302 303 303 303 304 305 306 307 308 308 307 305 303 300 297 292 289 288 287 285 281 279 281 284 286 286 287 287 288 288 289 291 293 293 293 292 291 289 287 286 284 276 269 269 271 272 275 279 282
293 293 291 287 283 281 279 277 278 280 282 284 286 288 291 293 296 298 300 301 301 302 303 303 303 304 305 306 306 308 308 309 310 311 310 308 307 305 302 298 294 291 289 287 285 281 277 277 279 281 281 281 281 282 284 286 287 286 287 289 290 289 287 284 283 281 277 272 269 267 269 272 274 274
290 288 285 280 279 279 280 282 285 288 290 292 294 297 299 301 303 304 304 304 305 305 305 306 306 308 309 309 310 310 310 311 313 314 312 311 310 308 305 302 298 296 294 291 286 281 276 274 274 276 277 277 277 279 281 282 283 282 282 283 283 282 280 278 276 277 279 279 273 267 265 266 264 265
286 282 280 279 281 282 285 289 292 295 299 301 303 305 306 306 307 308 307 308 309 309 309 310 310 311 311 312 313 314 314 315 317 317 316 315 315 315 313 311 308 307 304 298 290 283 276 272 271 272 275 277 277 277 278 279 279 279 277 274 273 275 276 275 274 275 277 276 272 269 269 268 266 265
282 281 281 284 288 292 295 298 301 304 307 308 308 309 309 308 309 310 311 312 313 313 313 313 313 314 314 315 317 317 317 319 321 322 321 319 319 320 319 316 315 315 315 311 306 296 283 275 273 273 275 277 278 278 277 275 274 275 275 273 271 272 274 274 275 277 278 274 269 267 271 273 271 269
282 285 290 293 294 296 299 302 305 307 308 308 308 308 309 311 314 316 318 319 319 319 319 319 319 319 319 320 321 321 322 323 324 324 323 321 320 320 318 315 315 316 317 317 317 312 301 290 283 281 280 278 276 274 274 275 275 276 277 276 273 272 272 271 272 274 277 275 273 271 272 273 272 271
286 290 291 290 291 294 299 303 305 307 307 308 308 310 315 320 324 326 326 326 325 325 325 325 325 325 324 324 325 325 325 325 325 324 322 320 319 319 317 316 316 316 315 315 317 318 314 308 302 297 293 288 279 271 269 272 275 277 277 276 275 273 271 270 272 274 275 275 276 277 277 276 273 271
281 282 282 284 290 296 301 304 306 307 308 309 312 321 329 333 334 333 332 331 330 329 329 329 328 327 326 325 325 325 325 324 323 322 322 322 322 321 319 317 316 317 316 315 316 319 318 314 310 303 297 294 289 282 277 275 275 278 280 280 279 277 276 277 279 280 277 273 273 275 277 278 277 271
271 275 281 289 296 300 304 306 307 306 308 314 325 336 340 340 340 338 336 335 333 331 330 331 331 330 328 326 325 325 324 322 321 322 324 326 325 323 320 318 318 318 318 316 317 319 316 312 309 301 293 291 290 287 287 286 282 280 283 284 283 283 283 283 280 274 270 267 265 267 271 273 274 268
271 280 288 293 297 300 303 304 303 305 314 329 341 345 345 343 342 341 338 336 335 334 334 335 334 332 330 327 325 323 322 321 322 323 326 327 326 324 321 320 319 319 318 317 317 318 316 313 309 300 290 286 283 282 286 290 289 284 283 285 288 288 282 276 273 271 271 268 264 263 265 267 268 263
278 287 292 296 299 300 300 299 301 312 332 344 348 348 345 344 343 342 341 339 337 336 336 336 336 334 330 328 325 323 322 323 323 324 325 326 325 324 323 321 320 319 318 317 318 319 319 315 311 304 294 285 280 280 284 288 287 283 278 277 281 282 277 276 279 279 277 272 267 266 265 262 259 255
283 289 295 298 298 295 294 298 310 331 346 349 348 346 344 344 344 344 342 340 337 336 336 335 336 335 333 331 327 324 323 325 325 325 326 325 324 324 324 322 321 320 318 317 317 319 319 318 317 314 304 291 283 283 285 285 282 278 271 266 270 272 272 276 278 275 272 275 280 279 271 261 256 251
282 288 293 293 288 287 294 308 328 345 350 348 346 345 345 346 346 344 343 342 339 338 337 337 338 338 336 334 330 326 324 326 326 326 326 325 324 325 324 322 320 319 316 314 314 316 319 322 321 314 303 292 285 283 283 280 277 275 271 266 265 266 266 267 268 268 272 280 286 286 277 265 258 253
280 286 285 282 280 288 303 324 342 349 347 345 346 347 347 346 346 344 344 343 341 340 342 344 344 342 340 337 333 330 327 327 327 326 326 325 325 326 325 323 321 320 317 315 313 317 323 325 319 306 292 283 276 274 274 273 273 275 277 272 262 260 260 260 261 267 271 271 271 276 278 271 258 253
277 276 271 267 273 287 311 338 347 346 345 347 349 348 346 345 345 345 345 345 346 347 348 349 349 346 343 340 336 333 331 329 327 326 325 327 329 329 327 325 323 321 318 315 314 318 324 325 317 301 285 272 262 261 264 265 268 274 280 278 272 268 263 259 259 260 256 251 252 261 271 272 263 260
261 254 247 244 257 286 325 344 342 340 346 352 351 347 344 344 346 348 348 350 351 351 350 351 351 349 347 343 339 337 335 332 329 327 327 329 332 332 329 327 324 321 318 315 315 318 323 323 316 301 286 270 257 254 258 261 265 272 278 280 277 273 265 258 251 243 237 237 239 238 238 238 248 268
237 231 227 229 252 298 333 340 337 340 350 353 348 344 343 345 348 351 352 352 351 351 352 354 354 352 349 346 342 341 340 337 333 330 329 330 332 332 331 328 326 324 322 318 315 316 319 320 316 308 298 284 268 261 262 264 266 271 274 273 271 267 264 260 250 238 233 229 218 198 175 175 183 200
224 224 226 238 272 308 331 336 337 344 350 349 345 343 343 345 350 353 354 353 352 352 354 356 356 353 351 348 346 345 345 342 339 335 333 332 332 334 334 332 329 328 327 324 318 314 315 318 318 312 306 295 280 273 270 267 265 265 261 257 262 267 267 269 267 244 213 194 178 158 145 155 161 164